{"data":{"norad_id":68912,"epoch":"2026-05-25T02:39:23.120064Z","epoch_age_seconds":61443,"freshness":"FRESH","line1":"1 68912U 26097T   26145.11068426  .00043097  00000+0  78926-3 0  9993","line2":"2 68912  97.2859 340.8640 0001447  87.0136 273.1281 15.49206532  3941","mean_motion":15.49206532,"eccentricity":0.0001447,"inclination_deg":97.2859,"raan_deg":340.864,"arg_perigee_deg":87.0136,"mean_anomaly_deg":273.1281,"bstar":0.00078926,"rev_number":394,"period_min":92.950808704698,"perigee_km":418.06243402178,"apogee_km":420.02953877804,"semimajor_km":6797.1829863999,"source":"CELESTRAK","updated_at":"2026-05-25T13:38:22.069937Z"}}